Location: Rumah Geringgi
(3.1667°N, 113.1667°E)
Time: 20:23:14
(UTC+00:00)

Cosmos 1484 Rocket - Pass Details

Date: 03 August 2024
Orbit: 474 x 513 km, 97.6° (Epoch: 19 September)

Event Time Altitude Azimuth Distance (km) Brightness Sun altitude
Rises 21:11:37 0° 350° (N) 2,511 6.3 -18.5°
Reaches altitude 10° 21:13:57 10° 335° (NNW) 1,639 5.2 -17.9°
Enters shadow 21:15:17 17° 316° (NW) 1,255 4.4 -17.6°
